Theta_e
338 341 341 343 343 345 342 342 342 341 343 339 338 341 341 339 338 337 338 337 336 337 335 336 337 338 344 338 339 339 340 341 340 342 342 341 341 342 341 340 339 337 336 336 336 335 335 334 334 334 333 333 332 332 332 331 331 330 330 330 329 330 330 329 329 328 328 329 328 328 329 329 328 329 329 330 330 331 331 331 331 332 331 331 332
341 341 342 343 344 344 343 342 342 342 342 343 344 340 338 338 340 339 335 337 340 338 338 337 335 337 340 339 337 342 342 340 341 340 342 341 341 341 342 341 340 338 337 337 337 335 335 335 334 333 333 332 332 332 332 331 331 330 330 329 329 329 329 329 329 328 329 328 328 328 328 328 328 329 330 330 330 330 331 330 331 330 330 330 330
342 342 343 343 344 345 343 343 341 341 344 344 345 342 340 340 340 340 340 338 340 340 334 337 334 335 336 335 341 342 335 338 338 343 343 342 341 341 341 340 339 340 339 339 338 336 335 335 334 334 334 333 333 333 332 332 331 330 330 329 328 328 328 328 328 328 327 327 328 327 327 328 327 327 328 329 329 329 329 329 329 329 329 329 329
345 343 341 342 343 343 344 343 342 342 343 341 342 343 340 337 344 347 345 345 342 342 342 339 337 334 335 335 337 335 338 340 339 339 340 341 341 341 340 339 340 340 340 340 339 337 335 335 335 335 335 333 333 333 332 332 331 330 330 330 329 328 328 328 327 327 328 328 328 328 328 328 327 327 327 327 328 328 328 327 327 327 327 327 327
348 343 340 341 343 343 341 342 343 344 344 344 343 342 342 344 344 344 342 342 343 342 339 342 340 339 341 335 340 338 337 339 339 339 340 341 344 342 340 339 338 339 340 338 340 338 336 336 336 336 335 334 335 334 333 331 331 330 330 329 328 327 327 327 327 327 327 327 327 327 327 327 327 326 326 326 326 326 327 326 326 326 326 325 326
345 343 342 341 342 342 341 342 342 343 344 345 342 340 340 338 341 340 340 341 340 342 338 338 338 340 337 341 337 340 341 339 340 339 340 339 341 340 338 339 339 339 338 338 339 339 339 337 337 336 334 335 335 335 334 333 332 330 329 329 328 329 328 327 327 327 327 327 327 327 327 327 327 326 326 326 325 325 326 326 325 325 325 325 325
341 343 341 343 343 343 341 342 342 343 342 342 342 342 343 341 337 338 338 339 338 339 339 339 338 339 340 344 339 339 340 339 341 341 341 340 341 340 342 343 345 338 337 337 339 340 340 337 337 336 336 335 336 336 335 334 333 332 330 329 329 329 328 328 328 327 327 327 326 326 325 326 326 326 326 325 325 325 325 325 325 325 325 324 324
340 343 347 344 342 343 346 344 343 343 341 343 345 342 342 341 341 340 335 336 336 336 338 339 340 341 341 341 341 339 339 339 340 341 342 340 338 338 338 338 337 338 338 341 337 338 338 338 338 336 336 336 336 336 336 334 334 333 332 331 330 328 328 328 327 327 327 326 327 326 326 326 326 326 326 326 325 326 325 326 325 325 325 325 325
339 342 344 340 341 342 345 344 343 342 343 343 343 342 342 342 341 341 339 334 332 333 337 339 339 340 339 336 337 339 339 340 341 342 342 338 337 340 339 335 337 338 339 340 338 337 339 337 337 337 336 336 336 336 336 336 335 334 333 332 331 329 329 329 328 327 328 328 327 327 326 326 326 326 326 326 326 326 326 326 325 325 325 325 325
339 339 342 340 340 341 341 340 343 344 344 343 342 342 342 342 340 340 339 339 339 334 336 337 338 337 338 336 338 341 341 341 339 341 339 338 337 336 337 339 339 339 340 341 338 339 338 338 338 338 337 336 336 336 336 336 336 336 334 333 332 331 329 329 329 328 328 328 326 326 326 326 326 326 326 326 326 326 326 326 326 326 325 325 325
340 341 339 343 339 339 342 343 343 344 343 341 342 341 342 341 340 339 341 339 336 336 337 338 337 337 337 337 337 338 340 341 342 340 338 337 338 335 338 338 337 338 337 337 340 339 339 337 335 336 337 337 336 336 336 335 335 336 335 335 334 332 330 330 329 328 329 328 327 326 326 325 326 326 326 327 326 326 327 327 326 326 326 325 325
343 343 343 340 340 340 340 340 343 342 341 340 338 338 340 341 340 339 338 337 339 339 339 338 338 338 336 336 336 336 338 339 337 338 340 339 338 339 336 338 336 336 338 339 338 340 339 338 338 338 336 337 336 336 336 335 336 335 335 335 335 333 332 331 330 330 330 328 327 326 326 326 326 326 326 327 328 327 327 326 326 326 325 325 325
342 341 341 340 339 338 338 342 342 341 341 340 339 340 341 341 339 339 338 335 335 339 339 339 335 333 335 334 336 336 336 336 336 337 338 339 338 340 338 336 337 339 335 337 339 338 338 338 339 339 337 335 337 336 336 336 336 335 334 335 335 335 334 332 331 332 331 329 328 328 327 328 327 327 328 329 329 328 327 327 326 326 326 325 325
341 339 340 338 338 341 341 342 340 340 341 340 341 339 339 340 339 336 338 336 335 337 339 336 330 328 327 329 332 334 333 333 335 337 338 339 338 337 336 337 337 338 340 336 337 337 336 339 339 338 339 337 338 336 337 336 336 335 335 335 336 336 334 334 333 333 333 330 329 329 328 328 328 330 330 330 330 330 329 328 329 328 328 327 327
340 339 340 337 340 342 339 340 341 341 339 339 338 338 338 338 337 335 333 335 335 338 338 338 333 332 331 326 324 325 327 331 334 333 334 336 336 337 336 336 335 337 339 338 338 336 337 335 335 335 336 336 338 337 338 336 336 334 335 335 334 335 335 334 334 335 333 331 329 329 328 329 329 329 330 331 331 330 330 329 330 329 329 328 328
341 338 337 339 341 341 340 340 340 341 340 338 337 334 337 337 337 336 335 330 331 333 338 338 335 331 322 322 324 324 317 323 327 332 335 335 335 337 337 333 336 335 336 335 337 337 337 338 336 335 336 336 336 337 336 336 334 332 332 333 334 334 335 335 335 335 334 331 330 330 329 330 330 331 331 332 331 331 331 330 330 331 331 330 329
341 340 340 341 342 342 340 340 340 340 340 338 336 336 334 336 336 335 334 333 329 332 336 338 337 335 331 325 321 319 322 325 327 327 335 333 333 335 337 332 335 337 335 334 336 336 334 335 337 338 336 337 335 336 336 337 335 336 333 332 331 333 333 332 332 333 333 333 331 331 330 330 331 331 331 330 330 330 330 330 330 330 331 330 331
342 342 340 342 343 343 342 341 341 340 339 337 338 337 336 336 335 337 335 336 334 331 331 335 338 336 335 332 329 324 322 326 327 318 331 333 331 332 332 334 334 332 335 334 335 334 335 337 338 336 337 337 340 336 338 336 336 336 338 334 328 330 330 331 333 334 333 333 332 332 333 332 330 330 330 330 330 330 330 330 331 330 331 330 330
339 340 339 338 343 343 343 342 341 341 340 338 337 336 335 335 336 334 337 335 335 329 331 332 334 336 336 335 335 334 333 326 321 322 318 326 333 329 329 332 332 332 332 332 333 335 334 335 335 334 334 335 336 337 336 335 333 331 329 326 327 327 325 326 330 333 334 334 333 332 332 331 329 328 329 330 329 329 330 328 327 327 326 326 326
338 338 339 338 341 342 343 341 341 340 337 338 337 337 338 336 338 338 337 336 335 332 330 332 330 332 335 334 332 335 335 331 329 325 322 319 324 327 330 333 335 334 333 332 332 332 332 333 333 334 336 335 333 334 335 336 336 334 331 325 325 326 324 324 322 322 329 332 332 334 332 332 331 331 331 330 330 330 329 327 327 326 326 325 324
338 338 338 338 339 339 339 338 339 337 334 338 338 337 337 337 338 338 337 335 335 334 334 332 332 331 332 333 331 333 333 332 332 329 327 321 319 322 326 331 332 331 331 332 332 332 331 332 332 332 334 333 333 335 338 334 332 333 329 324 325 324 324 322 319 320 320 329 332 332 332 332 333 331 329 328 327 327 326 326 325 325 324 323 323
338 338 338 337 337 338 336 336 336 334 333 333 334 338 339 339 339 336 337 335 338 336 334 335 336 334 332 330 330 329 329 330 331 330 327 327 320 320 323 324 322 326 330 330 331 332 331 332 332 332 334 334 331 333 334 332 333 331 324 322 324 324 323 321 317 317 318 326 331 330 332 330 330 329 327 327 327 326 325 324 324 324 323 322 320
338 338 337 337 337 337 336 335 336 335 332 332 333 331 333 334 334 335 338 335 334 335 336 338 336 334 333 332 333 330 329 324 325 328 324 322 322 323 324 325 323 322 327 329 330 330 331 332 331 330 333 331 332 331 331 329 324 321 320 321 322 323 320 318 316 316 319 326 329 328 327 327 326 325 325 324 324 325 325 325 324 323 323 322 321
337 336 336 337 337 336 336 336 334 334 333 334 332 331 332 332 333 333 333 338 338 337 335 335 335 333 334 334 332 333 329 330 328 327 326 326 325 322 322 323 324 325 326 329 330 330 330 330 330 331 331 330 329 329 328 326 322 320 320 317 318 317 319 319 316 316 315 321 322 323 322 322 321 320 320 320 320 320 320 320 320 322 323 323 322
334 334 335 336 335 335 335 332 333 334 333 332 332 333 332 332 332 332 333 335 336 337 335 335 333 332 333 335 333 333 332 335 333 330 331 327 327 322 323 325 321 322 324 326 324 327 329 328 329 329 328 328 328 327 327 327 324 319 318 315 314 315 316 319 318 314 311 311 316 320 321 321 322 322 321 319 317 315 314 312 310 310 313 320 322
332 331 332 334 333 333 333 333 332 332 332 333 332 331 333 329 331 331 333 338 338 337 335 336 335 334 333 332 333 333 334 333 332 331 328 327 325 324 323 323 323 320 322 321 322 321 324 328 328 328 328 328 327 325 324 322 321 318 318 317 314 312 311 312 313 313 310 308 308 309 312 315 316 317 315 313 312 310 309 310 308 308 308 310 316
331 332 333 333 333 332 333 332 332 332 332 332 332 333 332 330 331 333 334 337 338 337 336 336 333 333 333 332 333 331 333 334 330 333 328 329 327 326 324 320 318 319 318 319 319 320 320 324 327 327 327 327 325 323 322 322 319 316 316 319 315 309 309 309 311 311 308 307 306 306 307 308 309 309 309 309 310 312 313 311 311 309 308 311 312
334 333 332 333 332 331 331 331 331 331 331 331 331 331 331 331 330 332 331 331 333 332 333 334 334 335 335 335 331 332 332 332 331 332 328 330 329 328 327 323 316 313 316 315 316 316 321 320 325 326 324 323 324 323 320 318 318 316 321 318 316 312 307 307 308 308 308 308 307 306 306 307 308 309 311 312 313 312 312 310 311 310 311 311 310
332 333 332 332 332 332 330 330 331 331 331 331 330 330 330 331 331 330 330 330 330 328 329 330 332 333 335 335 333 333 331 332 332 331 332 330 328 326 323 321 321 316 313 313 315 314 318 320 316 320 323 321 321 319 317 315 313 316 316 316 315 313 308 307 307 308 307 306 306 307 308 309 311 313 314 314 313 312 312 311 311 311 311 309 311
333 332 332 331 331 329 329 329 331 330 331 330 328 329 329 328 329 329 329 330 329 329 329 329 330 332 333 333 332 330 332 332 331 333 333 330 326 326 323 323 322 317 316 313 313 316 315 318 318 316 319 317 316 317 316 313 312 317 314 314 314 312 306 306 306 307 306 305 305 306 308 308 310 311 312 312 311 311 311 311 312 313 311 309 307
332 331 331 330 330 327 329 329 330 329 330 328 328 328 328 327 328 327 328 328 326 326 328 329 330 330 332 333 332 331 333 333 333 333 332 328 326 324 323 323 322 322 319 316 312 316 318 316 316 318 316 315 316 316 314 315 315 317 315 314 312 307 307 306 305 306 306 306 306 307 311 310 309 310 312 312 312 311 312 313 313 312 312 309 307
330 330 329 329 327 327 326 327 327 329 329 327 327 327 328 327 326 325 326 325 322 323 325 327 326 329 332 333 332 331 332 333 332 331 327 326 326 322 322 322 321 323 323 318 314 314 318 317 316 316 316 316 315 313 314 314 314 314 316 314 309 308 309 309 307 307 307 307 308 310 312 310 310 311 310 311 311 310 311 310 311 310 309 308 307
330 329 330 328 326 326 325 325 325 326 328 327 328 327 326 325 325 325 322 322 321 322 325 326 326 326 327 328 331 333 334 331 330 328 325 324 324 322 323 320 319 321 319 318 315 314 318 320 317 314 315 316 313 314 312 314 315 316 314 312 310 312 311 310 309 305 305 306 306 306 307 309 311 311 306 305 306 306 305 306 306 305 307 305 303
329 329 329 327 326 325 323 322 322 323 326 327 327 326 325 325 325 322 322 321 322 321 324 324 326 326 328 328 329 333 332 328 328 324 323 323 321 320 320 320 318 319 320 317 315 314 315 317 314 315 313 315 312 314 314 314 315 315 312 311 311 313 312 312 310 308 303 305 303 304 305 305 305 304 303 303 304 304 305 304 304 303 304 302 302
329 328 328 326 325 325 323 323 321 321 323 326 327 326 325 324 321 321 322 323 323 323 322 323 323 325 326 327 331 331 330 328 326 327 325 323 322 320 321 321 321 320 318 317 316 315 314 313 315 313 313 313 315 313 314 315 315 315 312 311 311 313 315 314 312 310 302 303 302 304 304 304 304 303 304 304 303 303 303 303 303 302 301 301 302
327 328 327 325 326 325 323 321 320 321 323 325 325 325 322 320 320 321 322 323 323 323 322 322 323 324 325 325 327 328 328 325 324 324 324 324 322 321 321 322 323 321 322 323 319 317 314 312 315 313 314 312 314 315 315 315 315 315 314 312 313 314 315 315 314 311 303 302 302 304 304 304 304 303 303 303 303 302 302 302 302 301 301 301 300
327 327 327 327 327 324 324 321 320 321 323 323 323 322 322 323 322 323 322 322 324 323 323 323 328 324 324 324 325 325 326 324 325 323 324 324 321 324 323 322 321 323 323 322 321 319 317 315 315 316 316 314 315 316 315 314 315 315 315 314 313 315 318 318 315 309 303 302 303 304 304 303 303 303 303 302 302 302 301 301 301 301 301 301 301
326 327 328 326 326 324 323 321 320 321 322 322 322 322 322 323 324 324 324 324 323 322 321 322 323 323 324 324 325 326 325 326 323 326 326 323 321 323 322 320 321 322 323 322 322 321 319 316 317 316 317 314 314 317 316 316 315 314 314 315 316 317 317 317 312 309 306 306 308 308 303 303 302 302 302 302 302 300 301 301 301 301 301 300 300
326 325 325 326 325 325 322 322 320 320 321 322 323 323 323 323 323 323 323 324 323 323 323 323 323 323 322 322 323 324 324 325 325 325 325 324 323 322 322 322 320 321 321 321 320 319 320 319 318 317 315 316 317 315 315 317 316 315 314 314 314 315 318 316 315 312 312 310 309 305 306 307 305 304 302 302 301 301 301 300 301 301 300 298 298
325 322 323 324 324 324 323 322 321 321 321 322 323 323 323 323 324 324 324 324 324 325 326 325 326 325 325 323 323 321 323 324 326 324 324 323 323 322 322 322 322 321 321 320 321 320 320 320 318 315 316 316 315 318 317 316 314 314 315 315 313 314 316 319 318 317 315 315 313 310 307 306 304 303 301 301 301 300 300 300 301 301 299 298 298
325 324 322 322 321 321 322 322 321 323 323 324 324 323 323 321 324 323 324 323 324 325 326 326 326 326 326 327 327 328 329 323 312 314 314 316 327 325 325 326 324 323 322 321 323 319 319 318 318 318 316 316 315 316 315 314 313 313 317 318 316 317 316 316 317 319 316 316 316 313 310 310 308 307 305 305 304 302 302 302 302 301 298 298 298
323 323 321 322 321 324 323 323 324 325 325 328 310 299 304 325 325 324 325 326 325 326 325 326 326 326 327 327 331 321 318 316 312 305 304 303 307 321 326 327 325 325 323 321 320 321 320 319 319 318 315 314 315 317 316 317 318 318 317 317 314 315 316 316 318 319 319 317 315 313 313 313 312 310 309 308 307 305 306 305 305 302 300 298 299
323 322 321 321 321 323 324 325 326 326 328 323 296 295 296 297 323 327 324 325 325 325 325 326 327 326 328 327 329 328 325 320 326 303 301 303 303 301 300 303 309 322 322 321 321 321 322 320 323 321 319 316 317 318 317 317 318 317 316 317 316 315 313 312 310 316 320 318 315 314 314 314 313 312 312 313 308 308 310 312 302 300 299 299 298
325 325 324 322 322 323 323 323 325 325 326 298 294 295 295 294 300 321 328 327 327 327 327 326 327 328 327 328 329 332 330 327 327 325 312 302 301 302 301 300 299 298 300 316 319 319 320 319 318 319 319 318 317 317 316 317 317 318 318 316 316 314 314 312 312 311 317 320 315 314 313 316 316 314 314 314 313 314 311 300 299 298 298 298 298
325 323 322 324 325 325 325 324 324 325 322 295 295 296 296 296 297 307 326 328 327 327 327 327 327 326 326 327 327 329 327 326 326 327 328 325 303 299 299 299 298 297 298 297 298 316 319 318 318 319 318 317 317 317 320 320 321 317 317 314 316 317 316 314 313 313 317 320 316 314 312 315 315 314 313 315 315 313 304 299 298 298 299 298 298
323 323 323 324 324 323 323 323 325 325 313 297 294 295 296 295 296 299 326 326 328 328 327 327 327 326 326 326 325 326 329 330 329 328 327 326 328 324 324 324 325 319 300 295 294 293 305 318 318 317 321 322 318 322 325 324 320 316 316 315 318 316 315 314 318 318 319 319 315 314 312 312 315 314 311 313 311 312 313 306 298 298 298 298 298
325 323 323 323 323 323 322 323 324 315 305 293 292 293 293 294 293 297 323 327 328 329 329 329 327 328 328 327 327 325 326 328 330 326 328 327 326 326 326 327 326 326 326 326 325 324 323 323 322 322 322 324 325 325 327 324 323 323 322 320 321 319 319 320 317 318 317 318 318 316 310 311 314 310 311 311 310 310 313 303 298 298 298 298 297
323 325 324 324 323 323 323 324 321 312 306 291 292 292 293 293 292 311 322 325 326 325 325 324 322 326 328 329 327 326 326 327 314 306 315 329 325 323 322 323 324 324 325 300 295 296 307 314 317 320 323 322 317 334 333 328 324 325 322 323 322 321 317 317 313 312 312 315 317 313 311 311 312 308 309 311 310 308 309 310 297 298 298 297 297
321 322 322 322 323 323 323 321 319 315 310 296 291 292 292 291 298 315 321 324 323 323 324 326 328 328 328 327 328 327 328 326 306 303 303 309 325 323 321 321 322 322 323 309 295 291 291 291 291 291 292 293 294 294 295 303 321 320 321 317 317 318 316 313 312 311 311 313 311 312 310 306 307 307 307 309 309 307 307 306 303 298 297 297 296
320 321 322 323 322 321 319 320 319 313 307 296 291 292 292 291 295 310 319 322 323 324 325 326 327 326 326 323 323 327 328 323 300 296 297 313 324 322 321 321 320 318 321 318 315 305 292 292 292 292 293 295 297 299 297 297 300 310 318 316 315 319 313 313 309 309 310 311 308 310 306 304 306 306 306 307 306 306 305 305 305 301 297 297 296
321 321 321 321 320 319 318 318 314 313 308 301 292 291 291 291 296 307 315 319 321 321 321 322 324 325 323 321 307 308 314 304 293 298 294 305 322 322 322 320 318 318 321 321 317 313 312 312 311 312 309 308 314 313 309 299 303 310 321 319 321 316 314 312 310 309 305 306 308 310 303 303 303 306 305 302 300 303 306 307 306 305 303 303 302
Wind_Speed
9 8 8 7 6 6 6 6 6 7 5 6 7 5 4 4 4 6 4 5 4 4 6 9 7 7 9 9 7 7 7 6 8 6 6 7 7 9 10 10 9 9 10 9 9 9 9 8 8 9 8 9 9 9 9 9 9 9 10 10 10 10 10 10 10 11 12 12 13 13 12 13 13 13 13 12 13 15 15 15 15 15 15 15 16
7 7 6 7 6 6 6 5 5 5 4 4 3 5 5 4 5 5 6 8 6 6 5 5 6 6 5 7 4 11 12 9 6 4 6 7 7 7 9 8 9 10 9 9 9 9 8 8 9 9 8 8 9 9 9 9 9 9 9 10 10 10 10 10 10 10 11 12 12 12 12 12 13 13 13 13 14 14 14 15 15 15 15 15 15
5 5 6 7 6 6 5 5 4 4 4 5 4 4 4 3 4 5 5 5 5 4 5 5 6 6 6 3 12 10 13 9 3 1 5 5 6 7 8 8 9 8 7 6 8 8 9 9 9 9 9 9 9 9 9 9 8 8 8 8 9 9 9 10 10 10 11 11 11 11 11 11 12 12 13 13 13 14 15 14 13 13 13 14 14
3 6 7 7 7 6 5 6 5 4 4 5 4 4 4 6 5 2 2 2 2 3 3 3 4 3 2 9 11 10 7 5 7 6 4 6 7 7 7 7 6 7 7 5 8 9 9 9 9 9 9 9 9 9 9 8 8 8 8 8 8 8 8 9 10 10 10 11 11 11 11 12 12 12 12 12 12 13 14 14 13 13 13 13 14
4 6 7 7 7 5 6 5 4 4 4 4 5 4 5 4 4 3 3 3 3 1 3 2 3 2 5 12 7 7 7 5 5 5 5 4 4 6 6 7 8 5 5 7 6 9 8 8 8 9 9 9 9 9 9 8 8 8 8 8 8 8 8 9 9 9 9 9 10 10 11 11 11 11 11 11 12 12 13 13 13 13 13 13 13
4 6 6 7 7 7 6 5 4 4 3 3 4 5 5 5 4 5 3 4 4 2 3 2 2 2 3 10 10 3 5 6 5 5 5 4 4 5 6 5 6 5 6 7 6 6 7 8 9 9 8 8 9 9 9 8 8 8 8 8 8 9 8 7 8 9 8 9 10 10 10 11 11 11 11 11 11 12 13 13 13 13 13 13 13
8 6 7 7 6 6 6 5 6 5 4 3 4 4 3 5 6 6 5 4 3 4 3 1 1 2 4 4 8 6 5 5 5 5 5 5 3 3 1 4 2 3 5 6 5 5 4 6 9 8 8 8 8 9 9 8 8 9 8 8 8 8 8 8 8 8 9 9 9 9 9 10 10 11 11 11 12 12 12 13 13 13 14 14 13
6 6 4 5 5 5 1 5 7 5 6 5 3 4 3 3 2 2 4 4 4 3 2 2 1 2 3 4 8 4 4 5 5 4 4 4 3 1 2 3 3 2 1 2 4 6 6 5 6 7 7 7 7 7 9 9 9 9 8 9 8 8 9 9 8 8 8 8 9 9 9 10 10 10 11 11 12 12 12 12 13 13 13 13 13
8 1 5 4 2 2 5 7 7 6 5 5 4 3 3 2 2 2 3 5 6 3 3 3 3 4 4 7 4 3 4 5 4 3 4 3 2 3 4 5 3 4 5 4 5 6 6 6 7 6 5 6 7 7 8 9 9 8 8 8 8 8 8 9 8 8 9 8 8 9 10 10 9 10 10 10 11 11 12 12 11 12 13 13 13
5 1 2 4 2 2 2 3 5 6 5 4 3 3 4 3 3 3 3 4 4 2 2 2 2 3 4 7 5 3 3 4 4 3 4 6 6 7 2 3 4 4 1 2 5 4 6 6 6 4 4 5 5 6 6 6 8 9 9 9 9 8 7 8 8 8 9 9 8 9 9 9 9 9 10 10 10 10 11 11 11 11 11 11 10
4 5 4 2 3 3 5 6 6 5 5 5 4 4 4 3 3 2 1 2 3 2 2 2 2 4 4 5 6 6 3 4 2 2 3 1 2 8 5 2 4 1 2 4 4 5 6 5 5 5 5 4 5 6 5 6 6 6 8 8 9 9 8 8 7 7 9 9 9 8 8 9 9 9 9 9 10 9 10 10 10 10 10 10 9
4 4 4 3 2 1 1 7 5 5 5 5 4 5 5 4 4 3 2 2 2 3 3 3 4 4 5 4 5 5 4 2 2 1 3 2 2 5 6 7 5 6 4 5 4 5 5 4 3 4 5 5 4 3 5 5 5 5 5 6 7 9 9 10 8 8 10 9 9 9 8 8 8 9 9 9 9 9 9 9 9 9 9 8 8
4 3 3 1 2 3 7 5 5 5 4 4 2 5 5 4 4 3 3 3 3 3 2 3 4 4 4 6 4 5 6 3 3 1 2 1 2 1 2 4 3 4 6 2 4 4 4 5 4 3 1 5 4 3 4 5 5 5 6 7 6 7 11 10 8 9 11 10 10 10 9 8 8 9 11 11 10 9 9 9 8 8 8 7 7
5 4 3 1 3 6 4 4 4 5 4 3 4 4 5 4 4 4 3 3 3 3 4 4 4 4 5 5 4 2 6 3 2 1 2 1 1 2 3 3 5 2 2 6 4 4 5 5 5 3 2 2 1 5 6 6 6 7 6 7 7 8 10 10 9 10 11 10 9 9 9 9 9 11 10 10 10 10 10 10 9 8 8 6 5
8 6 6 8 8 6 7 5 4 4 5 5 5 5 3 5 5 4 4 3 2 3 4 3 1 1 3 4 4 4 6 4 3 2 1 2 1 2 2 3 4 4 1 2 3 3 3 4 6 2 3 2 2 3 3 4 7 8 7 5 6 7 8 9 9 10 11 10 10 9 9 8 6 7 8 9 9 10 9 8 8 6 5 5 4
8 10 11 8 6 6 4 4 4 5 4 5 3 7 5 4 5 3 3 4 4 4 3 2 1 2 0 0 2 2 5 4 5 0 3 2 2 2 1 4 2 3 2 4 2 3 3 3 6 7 4 4 3 3 3 3 8 8 6 7 6 3 7 7 6 9 12 11 11 10 9 8 7 8 8 10 11 9 8 8 7 7 8 5 3
8 7 4 6 5 4 5 5 5 6 5 5 5 3 6 5 4 5 5 1 2 4 4 4 3 1 2 3 1 2 1 6 6 4 1 3 3 1 0 5 2 2 3 3 2 2 2 4 3 3 6 4 6 5 2 4 5 4 6 6 4 3 8 7 7 8 9 11 11 11 10 8 8 8 7 7 8 8 9 8 7 7 7 9 11
5 4 6 5 5 5 5 6 6 5 4 4 4 3 3 4 6 5 4 5 2 3 4 3 2 6 6 3 4 1 4 6 5 4 1 2 3 0 4 5 4 4 1 3 4 3 4 4 4 4 3 3 4 6 4 6 5 4 3 5 4 6 8 4 9 8 8 8 9 10 11 10 9 6 5 6 8 8 8 11 12 12 13 13 13
6 7 6 6 6 5 5 5 6 5 5 5 5 5 4 3 5 4 2 3 3 2 3 4 3 2 2 4 3 1 5 6 3 6 6 3 3 4 4 4 6 6 3 3 4 4 4 4 3 4 2 4 3 4 5 6 8 9 10 7 7 8 10 6 4 9 9 9 8 10 11 9 7 4 3 6 7 7 12 13 13 13 13 13 13
6 6 6 6 6 6 6 5 5 6 6 5 5 5 3 4 1 3 4 2 2 1 3 3 4 4 4 2 3 4 4 5 4 2 4 5 4 3 4 4 5 5 4 4 5 5 4 3 4 3 3 4 7 5 5 5 6 7 6 8 8 8 9 9 11 9 5 8 11 11 11 11 12 13 14 16 16 15 14 14 13 13 13 13 13
6 5 6 6 6 5 5 5 4 4 3 3 4 5 4 5 4 2 4 1 2 1 1 2 2 2 4 4 4 4 5 5 5 4 3 6 6 6 5 4 4 4 4 5 4 4 4 3 3 4 4 6 8 5 4 7 8 8 8 9 9 8 8 9 10 9 8 12 15 17 19 19 18 17 17 17 16 14 13 13 13 13 13 12 12
6 5 5 6 5 5 5 5 4 4 3 5 4 4 4 4 4 3 4 3 3 3 2 2 1 1 2 3 2 3 2 3 3 3 3 2 4 7 6 7 5 4 4 4 5 5 5 5 4 5 5 6 10 6 7 9 9 8 8 10 10 9 11 11 12 11 12 14 17 19 19 18 17 17 16 16 15 14 12 12 12 12 12 12 12
5 6 5 6 5 5 5 5 5 3 3 4 4 4 4 3 4 5 5 6 4 4 4 1 1 2 4 2 2 1 2 2 4 4 5 4 4 5 6 4 6 6 4 4 6 6 6 5 5 6 4 8 8 9 10 10 11 10 12 11 12 11 12 12 13 14 14 16 17 18 18 17 16 16 15 15 14 13 13 13 12 11 11 11 11
5 5 6 6 4 5 5 4 4 3 4 3 3 4 4 4 4 3 3 4 4 4 3 2 3 3 3 2 1 0 2 2 3 3 6 6 6 7 7 7 6 5 5 5 6 6 6 6 6 7 7 8 9 10 11 10 9 11 11 12 13 13 13 12 13 12 13 13 14 16 17 17 16 16 15 15 14 14 13 13 13 12 12 11 11
6 7 6 6 4 5 4 3 4 3 2 3 1 2 2 2 3 3 3 4 4 4 4 5 4 3 2 2 1 2 2 3 2 4 2 4 7 5 6 5 6 6 6 5 6 7 5 6 6 7 8 9 9 10 10 9 8 9 12 10 12 13 13 13 11 13 13 12 12 13 14 16 17 16 16 15 14 13 13 12 11 10 10 11 12
6 5 6 5 4 4 4 3 3 3 3 2 1 2 2 2 3 2 4 3 3 4 4 4 6 3 2 1 2 1 2 1 6 5 2 3 4 6 6 5 6 6 6 6 6 7 8 6 5 7 8 8 9 9 9 10 8 9 11 9 10 12 13 13 13 13 13 13 13 13 13 13 13 13 13 14 12 10 10 9 10 9 9 9 10
6 6 6 5 6 5 4 3 3 3 2 2 2 2 2 2 4 3 1 2 3 2 2 3 5 7 5 3 2 1 2 8 4 2 5 3 4 5 5 7 6 5 7 6 7 6 6 7 7 7 8 9 9 9 9 8 10 11 10 8 6 10 12 13 12 11 12 12 12 12 12 12 12 12 11 10 9 9 9 9 8 8 8 8 8
6 7 7 6 6 5 4 4 3 3 3 4 4 4 3 2 5 4 4 3 3 3 3 2 2 3 5 6 7 7 6 4 4 3 2 3 4 4 4 6 7 7 6 6 6 7 7 7 7 7 5 5 9 8 11 11 8 7 9 7 6 6 10 11 12 12 11 11 11 11 11 11 11 10 9 9 9 8 8 7 6 6 6 6 6
6 6 6 6 5 5 4 5 4 4 4 4 3 5 4 4 5 5 5 5 4 4 3 3 2 1 2 3 5 4 3 3 3 2 3 4 4 5 5 4 4 6 7 7 5 6 10 10 8 6 8 8 8 8 8 8 10 9 8 8 7 6 7 10 11 11 10 10 10 9 9 9 8 7 8 8 8 7 6 6 5 4 5 5 5
6 6 6 7 5 4 5 5 5 4 4 4 5 5 4 4 5 5 5 4 3 3 3 2 2 2 3 3 4 4 5 2 3 5 4 4 3 3 3 5 4 4 4 6 6 5 6 5 7 8 8 9 8 8 7 8 11 7 10 8 8 7 8 9 9 10 10 9 9 8 7 7 6 6 6 6 5 5 4 4 4 3 3 4 4
6 7 7 7 6 5 5 6 5 5 4 4 5 5 5 5 4 4 4 4 3 3 2 2 2 3 4 4 4 5 5 5 5 5 5 4 4 5 5 5 7 5 5 6 6 3 2 4 7 8 8 9 7 7 8 8 8 6 9 8 9 10 10 7 7 8 8 8 8 7 7 5 4 4 4 4 4 4 4 3 3 3 2 3 2
6 7 7 7 7 6 6 6 6 5 5 5 5 5 5 5 5 5 4 3 4 4 4 4 4 3 3 4 4 6 5 5 6 6 6 5 5 2 5 3 1 5 5 4 5 6 2 4 7 8 9 7 8 8 8 8 5 3 10 8 11 11 8 6 6 6 7 7 7 7 7 7 5 5 4 4 4 3 3 3 2 2 1 2 2
7 8 7 8 7 6 6 6 6 6 6 6 5 5 5 5 4 4 5 4 5 4 3 2 4 5 4 5 5 6 7 7 7 6 5 3 3 5 5 4 4 3 5 7 7 7 4 5 5 7 8 8 7 9 9 8 8 7 10 11 12 9 9 8 6 7 7 7 7 6 6 5 5 5 5 5 5 4 4 3 3 2 2 3 2
8 8 8 7 6 6 6 6 6 6 7 6 6 5 5 4 3 3 4 5 4 5 4 4 4 3 3 4 6 6 6 7 7 7 6 5 5 5 4 5 5 3 3 5 7 6 7 5 6 7 8 8 7 8 9 9 9 9 11 11 10 10 9 9 9 7 10 8 8 7 6 6 7 7 6 6 6 6 5 4 4 4 4 4 4
8 7 7 7 6 6 6 6 6 6 7 7 6 5 4 5 4 4 4 3 4 4 4 6 6 5 5 4 6 6 5 6 6 5 6 6 5 4 3 2 3 3 2 5 7 7 8 7 6 7 7 7 6 9 11 9 9 9 11 11 11 10 9 11 10 8 12 11 11 9 9 8 7 7 7 6 6 6 6 6 6 6 5 6 6
7 7 8 7 6 6 6 6 7 6 7 7 6 5 6 5 5 6 5 5 5 4 4 5 6 6 6 6 5 6 6 7 6 5 5 3 2 4 4 4 2 0 2 3 6 7 6 8 7 8 8 8 7 9 10 10 10 10 10 10 11 10 11 10 11 11 12 14 13 11 10 9 8 8 7 7 7 7 7 7 7 6 6 7 7
7 7 7 6 6 6 5 6 7 7 7 7 7 6 5 5 6 6 6 5 4 3 3 4 4 6 6 6 7 7 5 5 4 4 3 1 3 3 2 4 4 4 1 2 3 5 7 7 7 7 8 8 8 8 10 10 10 10 10 11 11 11 8 8 3 9 14 11 9 9 9 9 8 8 8 9 9 8 8 8 8 7 7 8 7
6 6 7 6 6 6 6 6 7 7 7 7 7 7 7 6 6 5 4 4 4 4 4 3 3 3 4 4 5 6 5 5 5 3 2 5 2 1 3 4 3 6 5 5 5 4 6 7 8 7 7 8 8 7 10 10 10 10 10 11 10 10 9 8 8 7 7 7 6 5 4 6 8 8 10 9 9 9 9 9 8 8 8 8 7
6 5 6 6 6 6 7 5 6 7 8 7 7 7 7 6 6 5 5 4 4 4 3 3 4 3 3 3 3 3 3 3 3 2 2 1 2 2 3 2 4 1 5 5 6 7 6 7 7 7 7 8 7 8 9 10 10 10 9 9 9 9 7 9 7 8 7 8 8 8 7 8 10 8 8 8 9 9 9 8 8 8 8 7 7
6 6 7 6 6 4 5 5 6 6 7 7 7 7 7 6 6 5 5 4 4 3 3 3 3 2 3 4 2 3 1 2 4 2 1 1 2 4 2 3 3 4 3 5 6 6 8 8 7 8 8 8 8 7 8 10 10 10 10 9 9 8 7 7 8 7 7 7 6 6 4 7 8 6 7 7 9 10 10 9 9 8 9 8 7
5 5 6 7 7 7 6 6 6 5 5 6 4 3 5 7 4 5 5 5 5 4 4 3 3 3 3 3 1 5 7 6 8 7 6 5 5 4 4 4 4 4 5 4 5 6 6 7 8 7 8 8 8 9 9 9 10 11 9 8 7 7 8 8 8 8 7 8 7 7 8 9 8 8 8 8 8 10 10 12 10 10 10 8 7
5 5 6 6 7 5 5 4 4 4 4 4 6 10 8 4 3 4 4 4 5 5 5 5 5 5 4 4 6 7 7 7 7 7 7 8 7 5 4 3 4 5 6 6 5 5 6 6 5 6 8 9 9 9 9 8 9 9 8 8 9 9 8 6 5 5 7 8 7 8 9 10 9 9 10 11 10 11 8 10 8 9 9 8 6
6 4 4 5 6 5 6 4 4 3 3 5 10 11 11 11 7 1 5 4 5 5 5 5 6 5 5 4 5 5 5 4 2 4 3 3 3 4 4 3 3 3 6 7 7 6 7 6 2 6 9 7 6 7 8 9 8 9 9 9 9 8 8 9 9 6 6 8 9 9 8 11 10 9 9 8 11 9 10 6 15 14 11 8 7
6 4 4 4 5 4 4 5 4 3 5 6 10 11 10 10 8 5 4 4 4 4 6 5 5 5 5 5 3 3 4 5 3 6 6 7 5 1 2 3 3 2 1 4 6 7 8 7 6 8 10 5 7 8 8 8 8 7 8 9 10 10 8 8 8 8 7 8 8 8 8 5 9 7 5 6 6 8 6 14 15 13 12 10 8
5 5 5 5 5 5 4 3 2 4 5 7 9 9 9 10 11 8 5 5 4 5 5 5 5 6 5 5 6 4 5 7 4 5 4 6 7 7 5 4 6 8 9 8 6 6 7 8 7 8 8 9 9 8 6 7 6 9 10 11 8 5 6 8 7 5 7 8 8 8 8 7 8 7 7 5 6 4 10 14 16 15 13 10 9
5 5 5 5 4 4 3 3 3 7 7 11 8 9 8 8 9 8 6 6 6 6 6 7 6 6 6 5 5 5 4 3 3 5 5 6 4 5 5 6 7 8 10 10 11 10 7 6 8 10 9 8 9 6 5 6 8 9 8 8 6 6 9 9 4 5 7 8 9 7 8 7 8 7 6 6 6 6 6 12 15 13 12 11 9
4 4 4 4 4 3 2 1 4 6 5 10 10 9 9 9 10 7 5 6 6 6 5 7 9 7 5 7 6 8 6 7 5 4 5 3 5 7 7 6 7 7 7 7 5 4 5 6 8 9 9 9 9 9 5 7 6 4 6 7 8 8 7 6 7 6 6 7 7 7 8 6 6 7 5 4 5 5 5 12 15 14 13 11 10
4 4 4 4 4 4 4 3 7 5 5 8 9 9 9 9 9 4 4 5 7 7 6 4 8 11 8 6 7 8 8 6 9 8 1 5 6 8 8 8 8 8 4 5 4 4 3 4 5 6 6 6 4 1 2 1 1 1 2 5 1 2 5 5 5 6 6 6 6 6 6 6 5 5 5 5 4 4 4 6 11 14 13 12 12
5 5 5 4 5 4 4 6 7 5 4 6 7 8 9 10 6 4 6 6 6 7 6 6 11 8 7 8 9 7 9 2 7 6 5 1 6 8 9 9 9 8 5 4 7 8 7 6 6 7 10 12 14 14 14 9 4 7 4 4 5 5 4 4 5 8 8 7 5 5 5 6 5 5 5 5 5 5 5 5 7 11 13 13 14
6 6 6 6 6 7 7 6 6 5 3 5 7 8 8 9 5 4 6 7 5 8 8 9 8 6 5 4 6 8 5 6 3 6 2 3 6 8 8 8 9 9 7 4 2 4 6 8 8 8 7 8 9 11 12 13 15 5 4 4 5 5 7 7 8 10 9 6 5 3 4 4 4 4 4 4 5 6 8 5 9 9 13 13 15
5 5 5 6 6 6 7 8 8 6 5 5 9 9 9 10 7 4 5 7 6 8 8 7 6 7 6 6 15 11 7 4 6 2 3 5 6 7 7 7 7 7 7 4 4 4 3 3 4 4 3 3 2 4 5 7 3 2 2 6 4 6 5 5 5 8 8 7 8 6 3 4 5 4 4 4 6 6 4 5 7 8 9 8 8
Wind_Direction
167 165 172 165 158 152 154 160 159 161 171 152 193 163 158 184 186 204 201 227 232 216 215 227 208 195 200 211 203 209 125 94 91 103 125 123 127 138 147 141 127 127 130 132 130 130 131 126 119 119 114 103 97 100 99 95 101 98 92 91 90 85 87 88 87 84 81 79 80 84 83 79 76 71 68 71 79 74 73 71 71 69 66 65 64
159 166 157 150 152 157 157 147 152 134 166 146 138 159 170 173 187 191 196 210 210 205 225 220 227 210 234 203 187 44 21 85 37 127 128 130 129 140 146 132 129 135 137 135 130 131 127 122 114 110 110 111 112 109 106 106 95 94 92 87 87 89 85 83 82 85 84 82 83 84 82 79 79 78 73 72 77 75 72 70 69 69 68 66 64
160 161 148 155 154 155 148 142 149 144 144 133 148 158 168 164 200 199 195 210 208 213 229 219 231 219 209 205 56 52 54 72 121 210 107 122 144 140 136 134 133 131 140 135 132 127 131 125 120 117 118 119 113 103 103 106 103 99 103 101 96 96 96 94 92 88 86 89 92 89 86 83 85 83 82 78 76 77 73 71 70 70 71 69 66
167 159 159 158 154 157 149 152 139 142 138 136 149 175 183 182 202 243 280 273 234 237 252 272 257 275 198 59 68 96 90 132 154 133 122 166 143 148 142 137 131 139 129 117 133 137 133 132 124 125 123 114 106 108 108 111 115 112 107 102 98 94 96 95 96 96 92 90 89 90 90 88 85 85 83 81 78 77 75 72 70 70 73 70 68
183 173 168 159 151 149 145 135 131 127 135 147 159 182 186 154 184 201 201 218 245 222 238 266 284 339 51 69 91 96 130 120 104 111 156 138 126 141 151 144 141 119 127 129 132 142 135 135 131 126 128 120 113 117 117 111 105 109 105 104 99 98 91 95 99 92 93 97 93 97 96 93 91 89 88 91 86 81 78 76 73 71 70 72 73
238 181 181 154 154 154 147 139 128 127 124 156 174 203 163 190 189 192 187 214 197 201 219 210 223 213 93 92 96 117 115 114 111 132 127 133 133 154 147 162 133 140 145 149 141 135 144 140 137 131 130 120 118 124 127 122 120 114 114 111 113 109 104 94 91 100 98 95 96 94 95 94 91 88 88 89 89 85 81 80 78 76 73 73 75
236 217 177 154 141 149 146 146 147 161 152 162 210 182 165 179 180 195 176 208 203 182 233 100 94 23 53 135 106 88 94 119 121 135 144 129 160 163 135 79 16 149 142 144 146 123 127 139 137 140 138 135 130 134 133 129 131 130 124 122 112 112 116 112 99 96 95 92 89 89 91 95 95 94 95 91 88 85 82 80 79 77 76 72 72
271 242 166 152 140 119 126 164 163 171 155 184 204 173 156 208 160 177 177 196 191 180 172 121 103 76 82 78 73 108 87 115 127 138 144 136 130 111 117 92 163 179 75 106 139 127 117 123 126 143 142 137 135 137 138 135 135 135 133 126 122 123 115 107 107 107 105 103 102 98 89 87 90 91 88 87 86 84 82 81 79 79 77 75 72
240 184 2 55 65 215 196 165 173 159 146 162 198 158 152 158 154 211 219 202 191 152 137 142 150 151 118 82 113 93 107 102 132 149 137 161 174 161 87 165 148 164 175 209 134 138 128 135 149 151 146 128 133 143 141 142 141 136 128 124 123 122 122 117 124 116 106 111 109 104 101 96 92 91 90 91 89 88 85 84 81 79 76 73 72
169 293 172 148 214 226 166 224 180 144 151 169 176 171 151 167 169 180 213 346 352 108 135 155 138 115 106 113 109 107 112 120 128 163 178 173 153 89 164 170 184 147 141 289 145 136 138 136 138 138 135 129 126 141 145 141 145 146 140 137 133 136 132 123 121 121 113 106 106 103 103 100 97 93 88 85 87 86 85 82 80 80 78 77 75
144 201 170 182 199 210 162 215 162 150 149 164 160 161 142 162 168 147 340 265 142 130 148 113 120 106 122 123 140 143 134 106 122 163 150 112 107 137 163 213 121 179 183 187 131 140 136 149 156 157 150 141 148 137 138 137 137 149 147 142 141 141 137 122 125 120 109 113 113 109 102 100 94 95 95 91 86 86 85 83 83 81 79 76 76
181 186 170 209 224 27 226 203 150 158 150 163 169 150 155 153 145 143 141 114 94 129 141 147 126 129 118 102 86 91 99 119 119 349 29 124 215 168 159 180 143 159 165 154 150 130 146 153 160 141 138 156 149 147 134 118 132 145 131 141 141 146 132 129 131 123 123 122 118 112 109 108 109 104 103 100 95 91 87 84 81 79 77 76 72
194 190 235 264 106 180 222 192 166 140 162 149 155 127 144 155 133 150 163 165 151 144 137 152 151 142 128 111 106 106 134 108 86 68 103 150 223 106 88 114 95 100 128 141 119 169 154 137 121 109 125 141 162 134 94 106 110 112 128 129 131 156 142 137 133 131 132 130 125 120 120 118 116 109 101 101 99 92 89 84 82 81 76 72 70
188 184 211 229 159 233 157 201 169 134 91 115 127 131 151 158 155 158 180 166 153 171 142 187 177 177 156 131 112 126 94 131 121 147 134 139 20 55 115 62 92 97 92 143 164 187 152 139 142 146 141 70 124 142 133 125 106 100 115 138 138 149 146 144 137 133 131 132 134 124 123 120 112 109 104 100 97 97 92 85 83 80 77 76 71
188 177 176 208 210 173 190 150 161 114 133 165 147 134 186 162 172 178 174 172 161 152 184 250 328 286 177 163 139 153 144 98 126 126 40 64 148 137 102 124 148 122 121 79 85 56 24 113 93 90 65 60 61 106 124 100 86 83 79 109 144 149 143 144 141 136 135 137 135 131 124 122 123 116 111 93 96 103 97 86 76 85 84 77 61
191 171 196 169 203 175 145 152 140 133 143 133 185 168 172 163 175 187 189 174 182 161 200 128 280 65 150 274 181 200 155 152 129 19 146 146 98 92 89 96 52 146 119 87 39 42 72 53 97 117 117 128 140 131 137 127 116 102 77 65 61 68 152 140 136 149 140 142 141 134 130 131 126 117 91 76 65 71 81 75 64 52 49 58 58
169 184 145 155 163 148 148 143 141 141 152 152 180 170 167 181 155 191 201 308 211 157 180 159 199 163 62 145 174 208 82 125 138 126 92 119 115 104 343 97 125 52 84 109 109 142 136 92 64 87 135 154 131 96 84 103 127 106 108 87 64 54 143 138 160 151 141 147 145 144 139 129 114 94 78 75 82 83 75 68 66 60 72 79 74
162 160 154 141 151 145 143 153 152 152 160 156 158 158 175 201 158 192 214 117 308 174 185 175 238 160 178 158 178 323 150 153 179 135 85 56 167 177 126 141 122 83 32 123 126 79 69 74 101 92 89 108 112 133 155 123 103 85 81 78 59 78 96 112 153 141 147 143 141 149 135 105 94 85 85 85 82 75 74 76 87 88 80 75 74
164 158 151 154 147 147 148 155 152 159 158 155 156 173 174 184 155 184 65 214 132 278 218 169 188 203 217 167 142 184 129 149 162 136 147 143 103 159 91 60 78 86 102 97 122 106 87 85 89 94 90 89 91 111 118 94 89 92 67 65 68 90 103 121 131 135 141 141 144 134 120 123 111 126 144 129 125 127 101 90 83 81 79 77 75
151 150 147 149 148 147 147 152 155 158 160 158 164 159 186 149 192 79 82 29 354 234 250 210 194 176 200 201 160 141 172 156 186 203 161 146 149 105 114 128 108 102 96 106 87 87 91 83 89 91 84 110 95 69 73 97 101 92 75 60 75 85 99 106 107 104 115 120 124 128 128 124 116 106 100 102 103 101 95 89 87 82 79 75 74
148 144 148 140 147 141 143 143 150 137 153 146 145 162 155 137 152 167 125 176 170 163 281 266 224 317 180 209 180 179 183 156 172 181 193 153 155 153 135 124 109 98 89 80 76 89 98 95 86 97 100 84 98 85 95 99 93 84 82 76 82 89 94 104 111 116 112 103 104 110 110 106 100 99 97 96 95 95 94 92 86 81 77 76 75
139 142 132 129 137 133 137 135 126 132 164 130 129 119 132 143 138 170 170 182 194 176 195 224 210 152 315 259 270 147 202 115 177 153 44 351 159 158 150 148 139 131 131 125 123 124 128 134 135 112 103 98 96 112 91 89 89 88 78 80 82 83 91 97 106 117 118 117 111 103 100 102 102 100 98 97 96 94 93 90 88 87 85 83 79
135 124 123 118 126 129 128 134 124 131 125 117 145 149 145 156 169 182 163 175 206 193 197 197 231 203 215 195 170 311 38 132 253 163 149 192 172 143 147 169 133 132 125 129 141 131 127 126 119 99 96 95 97 93 88 82 81 77 75 79 83 82 87 93 98 98 96 99 105 107 106 105 104 101 99 96 93 88 84 78 74 76 84 87 88
130 123 126 122 129 117 119 120 125 128 118 120 144 159 169 161 180 183 189 193 188 189 180 185 203 229 214 221 182 261 175 256 237 253 150 189 152 158 164 174 141 121 129 156 130 122 125 118 111 109 105 89 89 96 101 98 86 85 86 77 84 87 87 85 86 93 105 110 108 110 110 108 106 104 100 94 86 79 72 66 59 50 50 65 83
146 142 127 138 139 118 122 122 108 113 102 111 100 22 83 150 146 179 183 194 189 193 185 183 197 219 203 185 236 195 177 211 268 263 219 171 159 160 141 152 132 129 140 155 135 118 118 119 119 117 113 117 115 110 110 110 106 101 97 80 85 90 93 95 92 94 91 92 95 101 108 108 105 97 90 82 77 71 68 61 56 51 43 46 53
135 140 139 148 122 118 109 102 109 109 109 66 87 160 122 170 136 161 185 167 178 182 204 170 170 153 198 198 234 189 237 352 259 227 175 162 145 152 150 140 142 146 145 147 139 133 118 102 109 114 105 106 108 107 107 111 110 92 95 98 85 93 95 97 97 98 96 93 89 85 82 82 80 82 83 83 80 76 72 64 61 57 55 48 43
139 132 141 138 120 126 128 121 114 112 109 145 146 111 134 215 112 124 127 148 146 156 145 169 161 162 183 202 113 111 229 238 196 320 155 160 152 155 160 142 144 152 145 142 135 118 118 127 127 108 115 127 118 115 119 112 110 119 120 101 89 87 100 100 102 99 101 99 95 94 92 93 94 94 93 92 88 82 78 72 65 60 57 53 49
131 133 141 140 136 134 142 128 133 136 152 150 161 142 147 116 116 132 135 128 129 131 134 153 168 181 172 172 174 185 195 201 142 211 146 132 138 138 152 160 152 149 150 136 135 127 130 119 111 117 120 96 98 101 110 121 123 143 122 118 114 95 94 101 102 104 103 101 101 100 99 97 95 95 94 92 87 85 83 81 76 74 72 64 62
131 134 141 136 141 139 137 133 142 153 146 158 150 126 153 129 129 147 141 145 153 129 138 150 131 154 210 169 130 211 171 141 135 122 90 102 145 163 174 171 157 149 151 138 138 140 149 145 127 135 123 120 121 130 141 130 142 165 125 124 122 114 99 103 104 103 103 102 102 100 98 96 96 96 93 90 88 84 78 74 66 58 66 68 65
133 140 140 138 138 132 128 140 145 145 153 157 145 135 142 131 136 146 129 127 129 147 168 132 133 160 185 183 164 162 119 119 128 120 132 137 143 147 171 129 162 161 137 149 141 153 146 176 144 137 136 132 140 149 134 132 165 190 126 128 127 117 107 104 105 104 102 102 98 99 100 97 93 90 89 92 88 88 88 81 66 48 51 58 39
140 141 151 147 142 144 137 145 147 152 159 139 138 153 147 135 147 128 145 176 158 156 145 142 151 181 183 180 165 133 147 155 142 127 125 156 155 177 169 165 160 146 167 143 158 147 160 140 115 138 144 150 158 140 135 135 164 210 133 135 125 118 128 98 105 109 108 110 112 113 116 115 115 111 110 111 112 103 84 79 79 67 58 48 19
145 150 163 149 149 149 154 148 156 158 160 150 170 153 154 155 162 169 163 171 161 166 153 184 170 163 184 158 152 142 162 151 144 143 151 171 213 155 85 90 41 143 131 157 150 123 187 130 138 143 146 161 147 144 138 144 134 255 139 136 121 144 143 131 117 126 128 133 142 142 137 141 146 147 135 124 113 106 101 95 84 84 78 32 28
151 160 164 149 155 156 153 155 158 162 161 171 166 163 167 172 178 146 172 181 164 146 130 143 125 148 160 161 156 152 157 152 149 145 151 152 128 134 146 121 131 168 192 162 151 145 145 129 147 153 152 159 158 152 150 140 153 158 144 132 148 162 156 157 154 151 152 146 142 141 145 154 153 143 138 139 134 131 133 125 114 98 74 59 49
157 164 157 154 153 167 155 158 154 156 171 172 167 177 175 164 142 174 174 180 155 132 172 146 113 110 136 158 153 150 153 149 146 157 151 161 158 145 152 165 140 150 137 134 125 153 144 164 169 149 152 187 159 167 146 156 167 168 150 149 168 185 166 170 172 168 170 162 161 160 161 165 161 157 157 151 146 143 135 127 113 96 82 83 76
165 163 153 158 162 167 158 159 157 153 173 165 171 183 157 160 171 175 188 148 120 146 153 157 148 133 137 138 136 143 149 146 168 167 155 189 175 140 124 131 123 132 208 152 149 151 163 165 177 158 167 193 190 170 157 165 176 175 162 165 178 199 181 173 180 170 171 170 169 170 174 170 168 166 160 155 146 137 134 126 117 109 102 87 76
163 168 157 167 164 169 165 164 156 162 159 161 172 169 162 169 171 168 160 139 157 164 145 133 128 140 132 139 122 137 146 160 176 153 189 185 253 131 161 119 123 322 43 358 164 146 173 166 189 178 168 185 202 178 165 170 178 188 172 174 192 201 198 182 188 174 167 170 170 170 171 168 168 167 161 158 152 149 144 134 124 119 110 102 100
166 169 162 171 167 171 169 173 160 164 156 162 162 163 155 164 164 157 157 157 155 149 81 79 105 118 137 142 147 133 150 152 139 181 169 148 198 136 198 149 163 165 192 260 258 177 163 183 179 203 163 183 200 190 175 173 178 196 188 180 198 207 194 200 107 128 139 158 163 167 165 169 170 168 165 163 161 158 148 136 133 135 129 122 119
160 175 161 176 168 172 172 182 163 164 163 160 161 158 156 157 152 160 141 145 146 122 138 147 105 113 120 123 131 146 153 158 177 196 158 167 223 235 195 250 203 164 192 191 235 244 186 192 178 202 175 182 195 201 186 182 181 193 201 189 195 209 192 187 129 146 157 162 176 160 159 171 172 170 171 168 165 160 149 145 147 146 140 134 124
154 172 165 162 172 175 174 178 165 169 162 164 158 159 156 155 152 142 151 154 140 137 146 124 126 125 134 118 136 128 149 168 165 171 170 201 256 270 279 261 278 223 181 212 212 219 223 209 191 202 191 187 200 197 199 189 190 196 206 202 194 213 199 196 166 154 172 175 169 159 183 195 159 180 169 172 167 162 158 158 159 150 137 134 132
157 174 164 164 166 171 173 172 168 166 157 170 161 162 165 156 151 153 154 164 148 149 153 137 123 127 120 140 149 159 135 54 35 22 18 267 218 219 241 262 263 280 255 214 221 232 217 217 217 207 205 194 195 209 205 196 197 200 208 208 201 192 195 168 218 196 178 165 173 171 149 133 152 143 156 181 181 171 170 168 166 154 152 152 154
158 169 162 166 164 183 169 175 159 152 163 169 153 174 169 159 157 169 160 177 167 164 173 161 160 160 162 133 108 64 59 51 61 63 60 47 13 21 353 341 311 279 262 283 282 242 237 237 224 217 209 217 209 205 207 209 202 211 197 207 207 198 200 194 204 215 185 187 194 184 173 178 184 183 192 196 187 184 183 187 162 164 161 161 159
153 159 166 162 163 156 149 141 135 145 174 88 46 50 31 33 173 167 171 181 193 182 190 182 184 193 181 175 106 93 68 57 56 45 36 42 44 22 354 340 333 317 299 277 252 287 285 254 242 251 229 214 214 209 212 222 217 222 220 215 226 215 212 209 198 196 198 205 214 200 195 185 200 195 204 211 174 182 188 193 179 166 162 160 139
129 133 144 145 157 154 149 144 132 168 102 45 34 38 30 29 0 248 187 205 202 202 201 205 197 198 207 209 152 132 142 150 143 149 125 62 53 45 41 51 17 326 307 295 281 253 229 219 155 267 259 231 224 209 213 222 221 224 224 222 223 229 223 215 219 200 197 220 212 236 222 178 195 203 209 230 153 190 200 174 130 139 149 146 138
83 80 83 110 131 131 144 150 144 128 73 17 39 37 17 17 24 347 290 219 206 222 214 211 213 207 204 223 222 189 207 209 239 176 184 185 173 150 317 325 298 230 189 262 293 297 285 275 249 215 236 241 237 226 221 219 212 219 238 238 227 230 229 220 222 215 180 200 215 225 240 148 186 228 232 264 180 191 129 123 135 143 151 154 142
89 87 78 63 61 60 54 71 89 83 77 20 48 39 32 6 4 339 278 257 233 227 237 230 237 228 219 214 219 176 235 156 232 254 241 188 189 191 204 230 253 245 243 219 223 248 291 293 293 291 273 246 244 238 220 232 215 220 216 230 232 218 226 230 223 231 151 187 208 223 226 201 184 215 239 225 250 122 129 145 151 159 155 148 153
83 86 90 88 83 74 64 75 37 48 47 3 16 45 32 8 360 344 286 286 278 264 246 237 234 249 238 231 225 220 227 188 230 244 257 262 203 197 217 239 251 227 221 223 232 235 237 263 281 280 280 282 274 280 240 237 225 223 216 225 230 226 230 236 222 156 155 182 199 212 227 221 183 199 222 237 236 215 179 155 160 151 147 151 163
103 107 106 116 108 107 100 108 88 68 39 5 4 22 25 360 352 330 301 293 272 261 292 332 295 253 252 251 246 250 238 213 164 171 235 255 277 270 259 258 259 275 266 255 240 243 234 243 261 263 267 273 269 267 296 263 242 236 219 220 225 236 233 126 120 147 167 186 204 221 239 220 251 246 223 240 250 219 213 152 161 147 148 162 169
108 101 115 122 135 135 136 133 89 75 41 21 7 14 11 359 348 306 282 277 267 263 255 239 266 263 243 247 264 259 256 257 132 177 244 263 259 266 271 268 265 257 262 78 81 58 18 343 351 346 340 358 30 319 63 114 214 303 49 37 324 228 203 161 200 157 200 179 206 215 235 247 254 238 228 233 232 255 247 128 140 147 157 172 181
149 146 142 140 129 123 107 98 93 85 64 23 16 19 13 4 344 306 278 264 264 260 272 243 242 246 252 246 244 238 247 72 30 286 211 262 253 269 273 276 273 267 217 125 83 70 66 61 45 40 33 28 26 22 19 3 126 118 113 184 189 157 156 190 246 229 205 185 176 224 246 244 236 248 239 229 244 246 255 144 153 158 171 182 192
155 147 136 107 83 78 81 94 103 106 87 39 27 28 16 13 357 310 298 279 287 294 259 251 263 278 284 296 291 275 353 44 221 335 343 190 259 269 273 275 277 270 248 133 146 85 96 92 88 80 73 67 64 55 37 24 19 22 217 195 210 202 222 209 213 233 230 187 168 169 225 226 247 244 247 251 250 248 242 220 149 177 187 196 200
123 122 120 113 90 81 84 93 102 94 85 58 32 22 22 18 7 314 308 290 255 254 273 284 299 282 311 38 33 29 59 58 58 37 336 290 273 276 277 276 280 286 284 171 175 149 163 168 134 128 104 66 65 83 84 81 52 342 316 276 307 274 252 266 277 259 243 183 136 135 232 224 234 211 233 245 252 257 226 197 166 179 184 208 194